Location: Jastrz?bniki
(50.3667°N, 20.3833°E)
Time: 11:09:15
(UTC+00:00)

Cosmos 1937 Rocket - Pass Details

Date: 05 August 2024
Orbit: 744 x 777 km, 74.0° (Epoch: 09 September)

Event Time Altitude Azimuth Distance (km) Brightness Sun altitude
Rises 00:03:03 0° 336° (NNW) 3,205 7.4 -20.6°
Reaches altitude 10° 00:05:25 10° 338° (NNW) 2,280 6.6 -20.4°
Maximum altitude 00:10:35 80° 65° (ENE) 772 3.5 -20.1°
Enters shadow 00:13:42 25° 150° (SSE) 1,503 4.7 -19.9°
